Weather History for Rio Gallegos, Argentina

Change the Weather History Date:

Sunday, December 30, 2012

  Actual Average Record
Temperature  
Mean Temperature 48 °F -  
Max Temperature 58 °F 67 °F 78 °F (2010)
Min Temperature 39 °F 46 °F 39 °F (2001)
Degree Days  
Heating Degree Days 16    
Moisture  
Dew Point 35 °F    
Average Humidity 61    
Maximum Humidity 93    
Minimum Humidity 32    
Precipitation  
Precipitation 0.00 in 0.04 in - ()
Sea Level Pressure  
Sea Level Pressure 29.71 in    
Wind  
Wind Speed 6 mph ()    
Max Wind Speed 13 mph    
Max Gust Speed -    
Visibility 8.3 miles    
Events      
Averages and records for this station are not official NWS values.
T = Trace of Precipitation, MM = Missing Value Source: Averaged Metar Reports

Daily Weather History Graph

Daily Weather History Graph

Search for Another Location

Airport:

Trip Planner

Search our weather history database for the weather conditions in past years. The results will help you decide how hot, cold, wet, or windy it might be!

Date:

Astronomy

Dec. 30, 2012 Rise Set
Actual Time 5:22 AM ART 9:57 PM ART
Civil Twilight 4:34 AM ART 10:44 PM ART
Nautical Twilight 3:21 AM ART 11:57 PM ART
Astronomical Twilight 2:12 AM ART 1:07 AM ART
Moon 10:47 PM ART (12/30) 7:49 AM ART (12/30)
Length of Visible Light 18h 09m
Length of Day
16h 34m
Waning Gibbous, 96% of the Moon is Illuminated
Dec 30
Waning Gibbous
Jan 5
Last Quarter
Jan 11
New
Jan 18
First Quarter
Jan 27
Full

Hourly Weather History & Observations

Time (ART) Temp. Windchill Dew Point Humidity Pressure Visibility Wind Dir Wind Speed Gust Speed Precip Events Conditions
12:00 AM 44.6 °F 40.2 °F 35.6 °F 71% 29.68 in 6.2 mi SSW 8.1 mph - N/A   Partly Cloudy
1:00 AM 41.0 °F 36.4 °F 37.4 °F 87% 29.65 in - South 6.9 mph - N/A   Clear
2:00 AM 41.0 °F - 35.6 °F 81% 29.65 in - Calm Calm - N/A   Clear
3:00 AM 39 °F - 35 °F 81% 29.65 in 19 mi SSW 6.9 mph - -   Partly Cloudy
3:00 AM 39.2 °F 34.2 °F 35.6 °F 87% 29.62 in 6.2 mi SSW 6.9 mph - N/A   Scattered Clouds
4:00 AM 41.0 °F 38.0 °F 35.6 °F 81% 29.62 in 6.2 mi SSW 4.6 mph - N/A   Scattered Clouds
5:00 AM 41.0 °F - 37.4 °F 87% 29.62 in - Calm Calm - N/A   Clear
6:00 AM 39.2 °F - 37.4 °F 93% 29.62 in - Calm Calm - N/A   Clear
7:00 AM 42.8 °F 41.1 °F 37.4 °F 81% 29.62 in - SW 3.5 mph - N/A   Clear
8:00 AM 46.4 °F 42.4 °F 35.6 °F 66% 29.65 in 6.2 mi South 8.1 mph - N/A   Scattered Clouds
9:00 AM 48 °F - 33 °F 45% 29.66 in 19 mi South 5.8 mph - -   Scattered Clouds
9:00 AM 48.2 °F - 33.8 °F 58% 29.65 in 6.2 mi South 5.8 mph - N/A   Partly Cloudy
10:00 AM 50.0 °F - 32.0 °F 50% 29.65 in 6.2 mi South 4.6 mph - N/A   Partly Cloudy
11:00 AM 50.0 °F - 30.2 °F 47% 29.65 in 6.2 mi South 3.5 mph - N/A   Partly Cloudy
12:00 PM 53.6 °F - 30.2 °F 41% 29.65 in 6.2 mi SSW 5.8 mph - N/A   Partly Cloudy
1:00 PM 55.4 °F - 30.2 °F 38% 29.65 in 6.2 mi SSW 10.4 mph - N/A   Partly Cloudy
2:00 PM 55.4 °F - 28.4 °F 36% 29.65 in 6.2 mi South 12.7 mph - N/A   Partly Cloudy
3:00 PM 54 °F - 33 °F 32% 29.70 in 19 mi ESE 12.7 mph - -   Partly Cloudy
3:00 PM 53.6 °F - 32.0 °F 44% 29.68 in 6.2 mi ESE 12.7 mph - N/A   Partly Cloudy
4:00 PM 55.4 °F - 35.6 °F 47% 29.71 in 6.2 mi ENE 12.7 mph - N/A   Scattered Clouds
5:00 PM 53.6 °F - 37.4 °F 54% 29.74 in 6.2 mi East 12.7 mph - N/A   Partly Cloudy
6:00 PM 51.8 °F - 39.2 °F 62% 29.77 in 6.2 mi East 10.4 mph - N/A   Partly Cloudy
7:00 PM 53.6 °F - 35.6 °F 51% 29.80 in 6.2 mi East 10.4 mph - N/A   Partly Cloudy
7:35 PM 53.6 °F - 35.6 °F 51% 29.80 in 6.2 mi East 9.2 mph - N/A   Partly Cloudy
8:00 PM 51.8 °F - 37.4 °F 58% 29.83 in 6.2 mi ENE 6.9 mph - N/A   Partly Cloudy
9:00 PM 51 °F - 36 °F 45% 29.88 in 19 mi NE 5.8 mph - -   Partly Cloudy
9:00 PM 51.8 °F - 35.6 °F 54% 29.86 in 6.2 mi NE 5.8 mph - N/A   Partly Cloudy
10:00 PM 48.2 °F - 37.4 °F 66% 29.89 in 6.2 mi North 4.6 mph - N/A   Partly Cloudy
11:00 PM 48.2 °F - 39.2 °F 71% 29.92 in 6.2 mi North 3.5 mph - N/A   Mostly Cloudy